Voltar ao catálogo

ARIANE 5 R/B

AtivoHEO
NORAD 42952·ROCKET BODY·🇫🇷 France

Lançado Sep 29, 2017 de Guiana Space Centre

Loading…

Próximas Passagens (próximas 24 horas)

TLE

AtualizadoSource: Space-Track

Época: Sep 14, 2026, 09:05 UTC

1 42952U 17059C   26257.37878411  .00002066  00000-0  56093-3 0  9995
2 42952   5.5644 189.9627 7104126  96.5415 341.3813  2.50471038 77288

Acompanhe ARIANE 5 R/B em tempo real com AllMySat

Download on the App Store